When you browse on this site, cookies collect data to enhance your experience and personalize the content and advertising you see.
Visit our Privacy Policy to learn more. By continuing to use the site, you agree to this use of cookies and data.
  • In Hungary
  • List of Countries
  • For 7 days
  • Water Temperature
  • Satellite Maps
  • Weather Map
  • News
  • Weather Widgets
  • user-avatar
    Login

    Hourly Weather Zbojno

    Today, 21 May, Tuesday

    Time Temperature Precipitation Wind Pressure Humidity
    00:00 +17°C° 0.5 mm 2 mps 740 mmHg 94%
    01:00 +17°C° 0.5 mm 2 mps 740 mmHg 95%
    02:00 +16°C° 0.5 mm 1 mps 739 mmHg 95%
    03:00 +16°C° 0 mm 2 mps 739 mmHg 95%
    04:00 +16°C° 0 mm 2 mps 739 mmHg 96%
    05:00 +14°C° 0 mm 3 mps 739 mmHg 96%
    06:00 +16°C° 0 mm 3 mps 739 mmHg 95%
    07:00 +17°C° 0 mm 4 mps 739 mmHg 93%
    08:00 +18°C° 0 mm 4 mps 739 mmHg 91%
    09:00 +17°C° 0.1 mm 5 mps 739 mmHg 89%
    10:00 +17°C° 0.1 mm 5 mps 738 mmHg 86%
    11:00 +17°C° 0.1 mm 6 mps 738 mmHg 83%
    12:00 +19°C° 0.6 mm 6 mps 738 mmHg 83%
    13:00 +18°C° 0.6 mm 7 mps 738 mmHg 83%
    14:00 +18°C° 0.6 mm 7 mps 738 mmHg 83%
    15:00 +17°C° 0.1 mm 7 mps 737 mmHg 81%
    16:00 +17°C° 0.1 mm 7 mps 737 mmHg 79%
    17:00 +16°C° 0.1 mm 7 mps 737 mmHg 77%
    18:00 +15°C° 0 mm 7 mps 737 mmHg 79%
    19:00 +14°C° 0 mm 6 mps 737 mmHg 80%
    20:00 +14°C° 0 mm 6 mps 737 mmHg 81%
    21:00 +13°C° 0 mm 6 mps 737 mmHg 82%
    22:00 +13°C° 0 mm 6 mps 737 mmHg 83%
    23:00 +13°C° 0 mm 6 mps 738 mmHg 83%

    Tomorrow, 22 May, Wednesday

    Time Temperature Precipitation Wind Pressure Humidity
    00:00 +13°C° 0 mm 6 mps 738 mmHg 84%
    01:00 +13°C° 0 mm 6 mps 738 mmHg 85%
    02:00 +13°C° 0 mm 6 mps 738 mmHg 85%
    03:00 +13°C° 0 mm 6 mps 738 mmHg 87%
    04:00 +13°C° 0 mm 5 mps 737 mmHg 88%
    05:00 +13°C° 0 mm 5 mps 737 mmHg 90%
    06:00 +13°C° 0.2 mm 5 mps 738 mmHg 91%
    07:00 +13°C° 0.2 mm 4 mps 738 mmHg 92%
    08:00 +14°C° 0.2 mm 4 mps 738 mmHg 92%
    09:00 +14°C° 0.1 mm 4 mps 738 mmHg 90%
    10:00 +15°C° 0.1 mm 5 mps 739 mmHg 88%
    11:00 +15°C° 0.1 mm 5 mps 739 mmHg 85%
    12:00 +16°C° 0.1 mm 5 mps 739 mmHg 82%
    13:00 +16°C° 0.1 mm 5 mps 739 mmHg 79%
    14:00 +18°C° 0.1 mm 4 mps 739 mmHg 76%
    15:00 +18°C° 0 mm 4 mps 739 mmHg 76%
    16:00 +18°C° 0 mm 3 mps 739 mmHg 76%
    17:00 +18°C° 0 mm 3 mps 739 mmHg 75%
    18:00 +17°C° 0 mm 2 mps 739 mmHg 79%
    19:00 +17°C° 0 mm 2 mps 739 mmHg 83%
    20:00 +16°C° 0 mm 2 mps 739 mmHg 87%
    21:00 +15°C° 0 mm 2 mps 739 mmHg 89%
    22:00 +14°C° 0 mm 2 mps 739 mmHg 92%
    23:00 +14°C° 0 mm 2 mps 740 mmHg 94%

    Day after tomorrow, 23 May, Thursday

    Time Temperature Precipitation Wind Pressure Humidity
    00:00 +13°C° 0 mm 1 mps 740 mmHg 95%
    01:00 +13°C° 0 mm 1 mps 740 mmHg 95%
    02:00 +11°C° 0 mm 0 mps 740 mmHg 95%
    03:00 +11°C° 0 mm 0 mps 740 mmHg 96%
    04:00 +12°C° 0 mm 1 mps 740 mmHg 96%
    05:00 +12°C° 0 mm 1 mps 740 mmHg 96%
    06:00 +14°C° 0 mm 1 mps 741 mmHg 92%
    07:00 +15°C° 0 mm 1 mps 741 mmHg 87%
    08:00 +17°C° 0 mm 2 mps 741 mmHg 83%
    09:00 +18°C° 0.5 mm 2 mps 741 mmHg 82%
    10:00 +18°C° 0.5 mm 2 mps 742 mmHg 80%
    11:00 +19°C° 0.5 mm 2 mps 742 mmHg 79%
    12:00 +19°C° 1.3 mm 3 mps 742 mmHg 78%
    13:00 +20°C° 1.3 mm 3 mps 742 mmHg 78%
    14:00 +21°C° 1.3 mm 4 mps 742 mmHg 77%
    15:00 +20°C° 1.9 mm 5 mps 742 mmHg 81%
    16:00 +19°C° 1.9 mm 6 mps 742 mmHg 85%
    17:00 +17°C° 1.9 mm 6 mps 742 mmHg 89%
    18:00 +16°C° 1.8 mm 6 mps 742 mmHg 90%
    19:00 +15°C° 1.8 mm 6 mps 743 mmHg 92%
    20:00 +14°C° 1.8 mm 6 mps 743 mmHg 94%
    21:00 +13°C° 0.5 mm 6 mps 743 mmHg 94%
    22:00 +11°C° 0.5 mm 6 mps 743 mmHg 94%
    23:00 +10°C° 0.5 mm 6 mps 743 mmHg 94%

    24 May, Friday

    Time Temperature Precipitation Wind Pressure Humidity
    00:00 +10°C° 0.2 mm 6 mps 743 mmHg 93%
    01:00 +9°C° 0.2 mm 5 mps 743 mmHg 92%
    02:00 +9°C° 0.2 mm 5 mps 743 mmHg 92%
    03:00 +8°C° 0.2 mm 5 mps 743 mmHg 90%
    04:00 +8°C° 0.2 mm 5 mps 743 mmHg 89%
    05:00 +8°C° 0.2 mm 4 mps 743 mmHg 88%
    06:00 +8°C° 0.1 mm 4 mps 744 mmHg 87%
    07:00 +8°C° 0.1 mm 4 mps 744 mmHg 86%
    08:00 +8°C° 0.1 mm 4 mps 744 mmHg 85%
    09:00 +10°C° 0 mm 4 mps 744 mmHg 83%
    10:00 +11°C° 0 mm 4 mps 744 mmHg 81%
    11:00 +12°C° 0 mm 4 mps 744 mmHg 79%
    12:00 +14°C° 0 mm 4 mps 744 mmHg 74%
    13:00 +15°C° 0 mm 4 mps 743 mmHg 69%
    14:00 +18°C° 0 mm 4 mps 743 mmHg 64%
    15:00 +18°C° 0 mm 4 mps 743 mmHg 64%
    16:00 +18°C° 0 mm 4 mps 743 mmHg 65%
    17:00 +19°C° 0 mm 4 mps 742 mmHg 65%
    18:00 +18°C° 0 mm 3 mps 742 mmHg 70%
    19:00 +17°C° 0 mm 2 mps 742 mmHg 74%
    20:00 +16°C° 0 mm 2 mps 742 mmHg 79%
    21:00 +15°C° 0 mm 2 mps 742 mmHg 81%
    22:00 +14°C° 0 mm 2 mps 742 mmHg 82%
    23:00 +13°C° 0 mm 2 mps 742 mmHg 84%

    25 May, Saturday

    Time Temperature Precipitation Wind Pressure Humidity
    00:00 +13°C° 0 mm 2 mps 742 mmHg 86%
    01:00 +12°C° 0 mm 2 mps 742 mmHg 89%
    02:00 +10°C° 0 mm 2 mps 742 mmHg 91%
    03:00 +10°C° 0 mm 2 mps 742 mmHg 92%
    04:00 +10°C° 0 mm 2 mps 742 mmHg 92%
    05:00 +10°C° 0 mm 1 mps 742 mmHg 93%
    06:00 +12°C° 0 mm 1 mps 742 mmHg 86%
    07:00 +14°C° 0 mm 1 mps 742 mmHg 80%
    08:00 +16°C° 0 mm 1 mps 742 mmHg 74%
    09:00 +18°C° 0 mm 1 mps 742 mmHg 68%
    10:00 +19°C° 0 mm 1 mps 742 mmHg 62%
    11:00 +21°C° 0 mm 1 mps 742 mmHg 56%
    12:00 +20°C° 0 mm 2 mps 742 mmHg 55%
    13:00 +20°C° 0 mm 2 mps 742 mmHg 54%
    14:00 +21°C° 0 mm 2 mps 742 mmHg 53%
    15:00 +21°C° 0 mm 2 mps 741 mmHg 54%
    16:00 +21°C° 0 mm 3 mps 741 mmHg 55%
    17:00 +21°C° 0 mm 3 mps 741 mmHg 57%
    18:00 +20°C° 0 mm 2 mps 741 mmHg 63%
    19:00 +18°C° 0 mm 2 mps 741 mmHg 69%
    20:00 +17°C° 0 mm 2 mps 741 mmHg 75%
    21:00 +16°C° 0 mm 2 mps 741 mmHg 79%
    22:00 +15°C° 0 mm 2 mps 741 mmHg 83%
    23:00 +14°C° 0 mm 2 mps 741 mmHg 87%

    26 May, Sunday

    Time Temperature Precipitation Wind Pressure Humidity
    00:00 +13°C° 0 mm 2 mps 741 mmHg 90%
    01:00 +13°C° 0 mm 2 mps 742 mmHg 92%
    02:00 +12°C° 0 mm 2 mps 742 mmHg 95%
    03:00 +12°C° 0 mm 2 mps 742 mmHg 95%
    04:00 +12°C° 0 mm 2 mps 742 mmHg 96%
    05:00 +12°C° 0 mm 2 mps 742 mmHg 97%
    06:00 +12°C° 0 mm 2 mps 743 mmHg 95%
    07:00 +12°C° 0 mm 3 mps 743 mmHg 93%
    08:00 +13°C° 0 mm 3 mps 743 mmHg 91%
    09:00 +14°C° 0 mm 4 mps 743 mmHg 83%
    10:00 +15°C° 0 mm 4 mps 744 mmHg 74%
    11:00 +17°C° 0 mm 4 mps 744 mmHg 66%
    12:00 +17°C° 0 mm 4 mps 744 mmHg 66%
    13:00 +17°C° 0 mm 4 mps 744 mmHg 67%
    14:00 +15°C° 0 mm 4 mps 744 mmHg 67%
    15:00 +15°C° 0 mm 4 mps 744 mmHg 66%
    16:00 +15°C° 0 mm 4 mps 744 mmHg 66%
    17:00 +17°C° 0 mm 4 mps 744 mmHg 66%
    18:00 +16°C° 0 mm 3 mps 744 mmHg 71%
    19:00 +14°C° 0 mm 3 mps 744 mmHg 75%
    20:00 +14°C° 0 mm 2 mps 744 mmHg 80%
    21:00 +13°C° 0 mm 2 mps 744 mmHg 81%
    22:00 +12°C° 0 mm 2 mps 744 mmHg 83%
    23:00 +10°C° 0 mm 2 mps 744 mmHg 84%
    Show more